Change the Weather History Date:

Saturday, September 21, 2013

  Actual Average (KBNO) Record (KBNO)
Temperature  
Mean Temperature 56 °F 54 °F  
Max Temperature 62 °F 74 °F 90 °F (1967)
Min Temperature 52 °F 34 °F 19 °F (1993)
Degree Days  
Heating Degree Days 8 11  
Month to date heating degree days 165  
Since 1 July heating degree days 302  
Growing Degree Days 6 (Base 50)    
Moisture  
Dew Point 43 °F    
Average Humidity 62    
Maximum Humidity 84    
Minimum Humidity 43    
Precipitation  
Precipitation 0.01 in 0.02 in 0.16 in (1944)
Month to date precipitation 0.30  
Year to date precipitation 7.28  
Sea Level Pressure  
Sea Level Pressure 29.76 in    
Wind  
Wind Speed 10 mph (SSW)    
Max Wind Speed 18 mph    
Max Gust Speed 25 mph    
Visibility 10 miles    
Events Rain    
T = Trace of Precipitation, MM = Missing Value Source: NWS Daily Summary

Daily Weather History Graph

Daily Weather History Graph

Search for Another Location

Airport or City:

Trip Planner

Search our weather history database for the weather conditions in past years. The results will help you decide how hot, cold, wet, or windy it might be!

Date:

Astronomy

Sep. 21, 2013 Rise Set
Actual Time 6:42 AM PDT 6:54 PM PDT
Civil Twilight 6:13 AM PDT 7:23 PM PDT
Nautical Twilight 5:39 AM PDT 7:57 PM PDT
Astronomical Twilight 5:04 AM PDT 8:32 PM PDT
Moon 8:00 PM PDT (9/21) 9:12 AM PDT (9/21)
Length of Visible Light 13h 10m
Length of Day
12h 12m
Waning Gibbous, 94% of the Moon is Illuminated
Sep 21
Waning Gibbous
Sep 26
Last Quarter
Oct 4
New
Oct 11
First Quarter
Oct 18
Full

Hourly Weather History & Observations

Time (PDT) Temp. Dew Point Humidity Pressure Visibility Wind Dir Wind Speed Gust Speed Precip Events Conditions
12:15 AM 59.2 °F 42.1 °F 53% 29.72 in 10.0 mi West 16.1 mph 21.9 mph N/A   Clear
12:35 AM 58.3 °F 43.2 °F 57% 29.72 in 10.0 mi West 16.1 mph - N/A   Clear
12:55 AM 57.6 °F 44.1 °F 61% 29.73 in 10.0 mi West 11.5 mph 19.6 mph N/A   Clear
1:15 AM 57.0 °F 45.0 °F 64% 29.74 in 10.0 mi West 11.5 mph - N/A   Clear
1:35 AM 56.5 °F 45.0 °F 65% 29.74 in 10.0 mi West 8.1 mph - N/A   Clear
1:55 AM 55.8 °F 44.8 °F 67% 29.75 in 10.0 mi WSW 8.1 mph - N/A   Scattered Clouds
2:15 AM 55.9 °F 44.8 °F 66% 29.75 in 10.0 mi West 4.6 mph - N/A   Mostly Cloudy
2:35 AM 56.5 °F 45.0 °F 65% 29.76 in 10.0 mi West 8.1 mph - N/A   Overcast
2:55 AM 56.5 °F 44.8 °F 65% 29.77 in 10.0 mi West 9.2 mph - N/A   Overcast
3:15 AM 56.3 °F 45.3 °F 67% 29.77 in 10.0 mi West 11.5 mph - N/A Rain Rain
3:35 AM 54.0 °F 47.7 °F 79% 29.77 in 10.0 mi West 8.1 mph - N/A Rain Light Rain
3:55 AM 53.1 °F 48.4 °F 84% 29.78 in 10.0 mi WSW 4.6 mph - N/A Rain Light Rain
4:15 AM 53.1 °F 48.4 °F 84% 29.77 in 10.0 mi South 5.8 mph - N/A   Overcast
4:35 AM 53.1 °F 47.7 °F 82% 29.75 in 10.0 mi South 4.6 mph - N/A   Mostly Cloudy
4:55 AM 53.6 °F 47.1 °F 79% 29.76 in 10.0 mi SSW 3.5 mph - N/A   Scattered Clouds
5:15 AM 53.1 °F 47.3 °F 81% 29.76 in 10.0 mi South 3.5 mph - N/A   Mostly Cloudy
5:35 AM 53.6 °F 47.3 °F 79% 29.75 in 10.0 mi SE 3.5 mph - N/A   Overcast
5:55 AM 53.6 °F 47.1 °F 79% 29.75 in 10.0 mi East 5.8 mph - N/A   Overcast
6:15 AM 54.3 °F 46.0 °F 74% 29.77 in 10.0 mi Calm Calm - N/A   Overcast
6:35 AM 53.4 °F 47.3 °F 80% 29.76 in 10.0 mi Calm Calm - N/A   Overcast
6:55 AM 53.1 °F 47.5 °F 81% 29.77 in 10.0 mi ESE 6.9 mph - N/A   Overcast
7:15 AM 53.2 °F 46.9 °F 79% 29.76 in 10.0 mi ESE 10.4 mph - N/A   Overcast
7:35 AM 54.5 °F 43.5 °F 66% 29.75 in 10.0 mi ESE 6.9 mph - N/A   Overcast
7:55 AM 55.0 °F 43.2 °F 64% 29.76 in 10.0 mi SSE 10.4 mph - N/A   Overcast
8:15 AM 55.9 °F 41.7 °F 59% 29.77 in 10.0 mi SW 10.4 mph 18.4 mph N/A   Overcast
8:35 AM 54.9 °F 43.9 °F 66% 29.77 in 10.0 mi SSE 8.1 mph - N/A   Overcast
8:55 AM 55.2 °F 43.2 °F 64% 29.78 in 10.0 mi SSE 6.9 mph - N/A   Overcast
9:15 AM 55.0 °F 43.0 °F 64% 29.78 in 10.0 mi SE 18.4 mph 21.9 mph N/A   Overcast
9:35 AM 55.6 °F 40.5 °F 57% 29.79 in 10.0 mi SE 18.4 mph 24.2 mph N/A   Overcast
9:55 AM 56.3 °F 38.3 °F 51% 29.77 in 10.0 mi SSE 18.4 mph 25.3 mph N/A   Overcast
10:15 AM 57.9 °F 37.2 °F 46% 29.77 in 10.0 mi SSE 12.7 mph 24.2 mph N/A   Overcast
10:35 AM 58.1 °F 37.6 °F 46% 29.77 in 10.0 mi South 13.8 mph 19.6 mph N/A   Mostly Cloudy
10:55 AM 59.9 °F 38.7 °F 45% 29.77 in 10.0 mi South 16.1 mph - N/A   Mostly Cloudy
11:15 AM 59.9 °F 38.7 °F 45% 29.78 in 10.0 mi South 12.7 mph - N/A   Scattered Clouds
11:35 AM 59.9 °F 38.7 °F 45% 29.78 in 10.0 mi SSW 8.1 mph - N/A   Scattered Clouds
11:55 AM 60.3 °F 38.5 °F 44% 29.78 in 10.0 mi SSE 6.9 mph - N/A   Scattered Clouds
12:15 PM 59.9 °F 38.3 °F 45% 29.77 in 10.0 mi Calm Calm - N/A   Mostly Cloudy
12:35 PM 60.8 °F 38.7 °F 44% 29.77 in 10.0 mi South 10.4 mph - N/A   Mostly Cloudy
12:55 PM 60.1 °F 37.4 °F 43% 29.76 in 10.0 mi Calm Calm - N/A   Mostly Cloudy
1:15 PM 61.5 °F 40.1 °F 45% 29.76 in 10.0 mi South 8.1 mph - N/A   Scattered Clouds
1:35 PM 61.9 °F 40.8 °F 46% 29.76 in 10.0 mi SSW 9.2 mph 17.3 mph N/A   Scattered Clouds
1:55 PM 61.3 °F 41.4 °F 48% 29.74 in 10.0 mi South 8.1 mph - N/A   Scattered Clouds
2:15 PM 61.5 °F 42.1 °F 49% 29.74 in 10.0 mi South 8.1 mph - N/A   Scattered Clouds
2:35 PM 61.5 °F 41.4 °F 48% 29.73 in 10.0 mi South 6.9 mph - N/A   Clear
2:55 PM 61.5 °F 41.2 °F 47% 29.74 in 10.0 mi South 8.1 mph - N/A   Scattered Clouds
3:15 PM 60.8 °F 41.0 °F 48% 29.75 in 10.0 mi South 10.4 mph - N/A   Overcast
3:35 PM 59.0 °F 45.0 °F 60% 29.75 in 10.0 mi South 10.4 mph - 0.01 in Rain Rain
3:55 PM 58.3 °F 46.8 °F 66% 29.74 in 10.0 mi SSE 6.9 mph - 0.01 in Rain Light Rain
4:15 PM 59.0 °F 46.4 °F 63% 29.73 in 10.0 mi SSE 5.8 mph - N/A   Scattered Clouds
4:35 PM 59.9 °F 44.2 °F 56% 29.73 in 10.0 mi South 6.9 mph - N/A   Scattered Clouds
4:55 PM 59.9 °F 43.2 °F 54% 29.74 in 10.0 mi South 10.4 mph - N/A   Scattered Clouds
5:15 PM 59.4 °F 43.7 °F 56% 29.75 in 10.0 mi South 5.8 mph - N/A   Mostly Cloudy
5:35 PM 58.6 °F 43.9 °F 58% 29.74 in 10.0 mi South 6.9 mph - N/A   Overcast
5:55 PM 58.3 °F 43.3 °F 58% 29.74 in 10.0 mi South 8.1 mph - N/A   Mostly Cloudy
6:15 PM 56.3 °F 45.0 °F 66% 29.74 in 10.0 mi SW 5.8 mph - N/A   Mostly Cloudy
6:35 PM 56.3 °F 44.1 °F 64% 29.74 in 10.0 mi South 15.0 mph 18.4 mph N/A   Scattered Clouds
6:55 PM 55.6 °F 43.3 °F 63% 29.74 in 10.0 mi South 10.4 mph - N/A   Clear
7:15 PM 55.0 °F 42.8 °F 63% 29.75 in 10.0 mi South 9.2 mph - N/A   Scattered Clouds
7:35 PM 54.7 °F 42.8 °F 64% 29.74 in 10.0 mi South 15.0 mph - N/A   Mostly Cloudy
7:55 PM 54.5 °F 42.8 °F 65% 29.74 in 10.0 mi SSW 9.2 mph 18.4 mph N/A   Scattered Clouds
8:15 PM 54.1 °F 42.8 °F 66% 29.74 in 10.0 mi South 12.7 mph - N/A   Clear
8:35 PM 53.2 °F 42.4 °F 67% 29.73 in 10.0 mi South 13.8 mph - N/A   Clear
8:55 PM 53.2 °F 42.8 °F 68% 29.74 in 10.0 mi South 12.7 mph 17.3 mph N/A   Clear
9:15 PM 53.8 °F 43.0 °F 67% 29.76 in 10.0 mi South 13.8 mph 18.4 mph N/A   Scattered Clouds
9:35 PM 54.1 °F 43.2 °F 66% 29.77 in 10.0 mi South 11.5 mph - N/A   Overcast
9:55 PM 54.5 °F 42.8 °F 65% 29.76 in 10.0 mi South 12.7 mph - N/A   Overcast
10:15 PM 54.0 °F 43.0 °F 66% 29.77 in 10.0 mi WSW 3.5 mph - N/A   Overcast
10:35 PM 54.1 °F 43.0 °F 66% 29.77 in 10.0 mi West 4.6 mph - N/A   Overcast
10:55 PM 53.8 °F 43.0 °F 67% 29.77 in 10.0 mi West 3.5 mph - N/A   Overcast
11:15 PM 53.6 °F 43.2 °F 68% 29.76 in 10.0 mi West 5.8 mph - N/A   Overcast
11:35 PM 52.7 °F 43.3 °F 70% 29.76 in 10.0 mi West 3.5 mph - N/A   Overcast
11:55 PM 52.7 °F 43.9 °F 72% 29.76 in 10.0 mi SW 3.5 mph - N/A   Overcast